SCP
0 0 0 0 0 0 0 0 0 0 0 0 0 0 0 0 0 0 0 0 0 0 0 0 0 0 0 0 0 0 0 0 0 0 0 0 0 0 0 0 0 0 0 0 0
0 0 0 0 0 0 0 0 0 0 0 0 0 0 0 0 0 0 0 0 0 0 0 0 0 0 0 0 0 0 0 0 0 0 0 0 0 0 0 0 0 0 0 0 0
0 0 0 0 0 0 0 0 0 0 0 0 0 0 0 0 0 0 0 0 0 0 0 0 0 0 0 0 0 0 0 0 0 0 0 0 0 0 0 0 0 0 0 0 0
0 0 0 0 0 0 0 0 0 0 0 0 0 0 0 0 0 0 0 0 0 0 0 0 0 0 0 0 0 0 0 0 0 0 0 0 0 0 0 0 0 0 0 0 0
0 0 0 0 0 0 0 0 0 0 0 0 0 0 0 0 0 0 0 0 0 0 0 0 0 0 0 0 0 0 0 0 0 0 0 0 0 0 0 0 0 0 0 0 0
0 0 0 0 0 0 0 0 0 0 0 0 0 0 0 0 0 0 0 0 0 0 0 0 0 0 0 0 0 0 0 0 0 0 0 0 0 0 0 0 0 0 0 0 0
0 0 0 0 0 0 0 0 0 0 0 0 0 0 0 0 0 0 0 0 0 0 0 0 0 0 0 0 0 0 0 0 0 0 0 0 0 0 0 0 0 0 0 0 0
0 0 0 0 0 0 0 0 0 0 0 0 0 0 0 0 0 0 0 0 0 0 0 0 0 0 0 0 0 0 0 0 0 0 0 0 0 0 0 0 0 0 0 0 0
0 0 0 0 0 0 0 0 0 0 0 0 0 0 0 0 0 0 0 0 0 0 0 0 0 0 0 0 0 0 0 0 0 0 0 0 0 0 0 0 0 0 0 0 0
0 0 0 0 0 -0 -0 -0 0 0 0 0 0 0 0 0 0 0 0 0 0 0 0 0 0 0 0 0 0 0 0 0 0 0 0 0 0 0 0 0 0 0 0 0 0
0 0 0 0 -0 -0 -0 0 -0 0 0 0 0 0 0 0 0 0 0 0 0 0 0 0 0 0 0 0 0 0 0 0 0 0 0 0 0 0 0 0 0 0 0 0 0
0 0 0 0 -0 -0 0 0 0 0 -0 0 0 0 0 0 0 0 0 0 0 0 0 0 0 0 0 0 0 0 0 0 0 0 0 0 0 0 0 0 0 0 0 0 0
0 0 0 -0 -0 0 0 -0 0 -0 0 0 0 0 0 0 0 0 0 0 0 0 0 0 0 0 0 0 0 0 0 0 0 0 0 0 0 0 0 0 0 0 0 0 0
0 0 0 -0 0 0 0 -0 -0 -0 0 0 0 0 0 0 0 0 0 0 0 0 0 0 0 0 0 0 0 0 0 0 0 0 0 0 0 0 0 0 0 0 0 0 0
-0 0 0 0 0 0 -0 -0 -0 -0 0 0 0 0 0 0 0 0 0 0 0 0 0 0 0 0 0 0 0 0 0 0 0 0 0 0 0 0 0 0 0 0 0 0 0
0 0 0 0 -0 -0 -0 0 -0 -0 0 0 0 0 0 0 0 0 0 0 0 0 0 0 0 0 0 0 0 0 0 0 0 0 0 0 0 0 0 0 0 0 0 0 0
0 -0 -0 -0 -0 -0 -0 -0 -0 0 0 0 0 0 0 0 0 0 0 0 0 0 0 0 0 0 0 0 0 0 0 0 0 0 0 0 0 0 0 0 0 0 0 0 0
0 -0 -0 -0 -0 -0 -0 -0 0 0 0 0 0 0 0 0 0 0 0 0 0 0 0 0 0 0 0 0 0 0 0 0 0 0 0 0 0 0 0 0 0 0 0 0 0
0 0 0 -0 -0 0 0 0 0 0 0 0 0 0 0 0 0 0 0 0 0 0 0 0 0 0 0 0 0 0 0 0 0 0 0 0 0 0 0 0 0 0 0 0 0
0 -0 -0 -0 0 0 0 0 0 0 0 0 0 0 0 0 0 0 0 0 0 0 0 0 0 0 0 0 0 0 0 0 0 0 0 0 0 0 0 0 0 0 0 0 0
-0 -0 -0 0 0 0 0 0 0 0 0 0 0 0 0 0 0 0 0 0 0 0 0 0 0 0 0 0 0 0 0 0 0 0 0 0 0 0 0 0 0 0 0 0 0
-0 0 0 0 0 0 0 0 0 0 0 0 0 0 0 0 0 0 0 0 0 0 0 0 0 0 0 0 0 0 0 0 0 0 0 0 0 0 0 0 0 0 0 0 0
-0 -0 0 -0 0 0 0 0 0 0 0 0 0 0 0 0 0 0 0 0 0 0 0 0 0 0 0 0 0 0 0 0 0 0 0 0 0 0 0 0 0 0 0 0 0
-0 0 0 0 0 0 0 0 0 0 0 0 0 0 0 0 0 0 0 0 0 0 0 0 0 0 0 0 0 0 0 0 0 0 0 0 0 0 0 0 0 0 0 0 -0
-0 0 0 0 0 0 0 0 0 0 0 0 0 0 0 0 0 0 0 0 0 0 0 0 0 0 0 0 0 0 0 0 0 0 0 0 0 0 0 0 0 0 0 -0 -0
0 0 0 0 0 0 0 0 0 0 0 0 0 0 0 0 0 0 0 0 0 0 0 0 0 0 0 0 0 0 0 0 0 0 0 0 0 0 0 0 0 0 0 0 0
0 0 0 0 0 0 0 0 0 0 0 0 0 0 0 0 0 0 0 0 0 0 0 0 0 0 0 0 0 0 0 0 0 0 0 0 0 0 0 0 0 0 0 0 0
Wind_Speed_500mb
22 24 26 30 30 27 26 23 21 19 20 15 11 9 4 1 5 2 3 7 6 4 4 7 11 14 9 6 3 3 9 13 9 10 6 4 6 2 3 6 6 3 2 8 26
22 24 26 28 29 29 29 26 24 20 20 15 9 6 3 5 3 4 8 8 5 3 7 9 12 14 8 9 6 13 12 6 10 9 6 5 8 5 7 14 13 8 4 13 22
21 24 27 29 29 30 32 29 24 22 18 13 9 4 1 4 2 5 11 8 4 5 10 13 16 11 9 9 8 8 9 6 5 7 6 6 8 4 10 13 12 8 17 19 22
19 23 28 29 29 31 34 31 25 20 15 10 7 3 2 5 3 9 9 7 1 5 11 14 12 9 9 11 8 10 1 5 3 5 6 6 10 10 15 9 5 2 6 19 24
21 21 25 30 30 31 34 33 24 17 11 7 5 4 4 2 2 8 6 6 1 5 11 7 14 10 10 5 7 10 4 3 1 3 7 12 15 17 19 13 12 9 7 14 19
22 23 26 30 30 29 31 30 20 12 6 5 4 4 4 8 6 7 4 5 3 7 7 7 5 4 7 2 7 4 5 3 2 3 5 11 12 6 4 2 5 13 16 14 17
26 26 30 29 28 28 30 27 17 11 7 1 2 5 3 5 2 5 3 5 4 9 4 10 10 1 8 8 5 10 8 6 5 7 3 12 13 13 9 5 9 5 5 11 14
31 31 32 31 27 27 28 24 15 8 4 2 4 4 3 6 7 6 4 6 8 8 10 12 13 9 3 12 8 7 5 7 8 12 2 9 3 10 5 2 3 2 1 3 10
27 21 28 28 23 22 22 19 10 7 4 1 1 6 4 3 5 5 4 6 9 9 13 13 6 6 6 6 6 3 4 8 8 8 8 4 10 11 4 11 23 20 18 18 19
22 26 23 25 19 24 21 14 10 12 3 3 7 3 3 4 4 3 4 9 6 11 7 3 2 3 3 6 4 7 7 5 4 11 10 16 22 18 22 23 24 20 14 15 16
26 18 26 20 26 23 15 14 9 2 8 7 2 5 5 8 12 7 4 8 9 4 2 5 4 5 6 6 6 5 2 4 6 8 11 7 22 23 18 12 14 14 14 18 19
23 24 22 9 21 20 11 6 7 10 12 13 12 13 8 2 3 14 6 1 5 5 2 4 6 4 3 2 3 4 2 1 2 4 10 13 26 10 16 16 17 16 20 24 24
13 23 6 12 19 12 6 4 11 12 1 6 9 8 6 7 7 15 6 4 10 7 4 0 11 2 2 7 1 7 4 5 5 17 1 22 6 12 20 27 25 25 21 24 28
7 12 9 18 9 4 3 1 7 6 5 4 5 8 8 3 4 16 7 3 6 5 10 11 6 2 2 5 9 4 7 5 7 9 4 14 2 15 15 20 27 27 29 27 28
16 13 13 10 3 3 4 1 8 5 3 5 4 4 10 5 4 10 15 8 7 6 3 4 6 7 6 6 8 6 3 5 4 0 3 5 5 14 14 10 17 27 28 28 28
8 12 11 4 1 2 1 8 10 8 3 2 5 6 2 9 6 9 5 10 9 7 18 7 5 7 6 5 9 8 2 3 2 2 4 4 5 9 1 10 10 22 28 30 29
6 17 21 2 2 4 10 8 7 3 1 4 4 4 5 8 5 12 6 3 2 6 3 5 4 4 5 3 5 3 2 2 5 5 2 1 7 4 9 14 19 20 24 27 28
17 17 15 2 4 7 11 7 3 2 4 2 0 3 2 8 6 8 2 3 2 5 6 8 6 3 12 6 1 1 2 6 7 4 4 2 10 4 20 18 19 20 21 23 26
20 11 6 3 5 10 2 5 7 3 3 7 6 2 1 3 2 3 3 3 4 5 5 7 4 6 9 3 4 5 3 4 6 2 5 5 6 12 18 9 13 16 20 23 23
13 8 6 4 6 8 6 4 3 2 2 3 7 5 5 5 5 3 5 3 3 2 4 4 3 1 1 3 7 2 4 3 4 6 9 7 8 11 22 19 4 10 16 21 22
8 2 7 3 8 1 4 3 1 2 3 4 4 3 6 7 6 5 4 6 4 6 0 5 1 5 3 10 7 6 5 4 4 5 7 7 7 7 26 25 17 8 10 20 22
4 3 6 4 5 7 4 4 3 1 0 2 4 0 5 4 7 6 8 5 7 9 5 3 1 7 5 7 0 4 4 10 8 7 4 6 12 12 25 30 22 11 10 13 15
6 5 7 4 4 3 4 4 4 5 5 6 3 4 1 4 7 6 5 3 6 7 3 6 4 4 5 4 6 9 14 8 2 3 16 8 6 5 18 17 11 5 6 11 15
2 2 3 5 9 10 8 5 3 2 3 1 2 1 1 3 1 7 5 2 5 4 4 4 6 9 8 5 4 8 14 18 14 9 11 28 12 11 17 11 11 9 9 13 13
3 3 3 4 6 5 2 8 6 3 5 5 3 13 5 4 3 7 6 2 5 5 1 4 8 7 15 11 7 14 11 20 28 30 17 29 19 4 15 12 13 12 16 19 22
4 4 7 5 3 5 3 2 4 0 6 4 7 4 13 7 5 4 6 9 9 11 8 2 4 5 8 10 13 25 30 32 37 36 36 46 56 14 8 5 5 16 26 28 31
5 6 4 1 2 2 1 3 6 10 12 6 7 6 12 15 10 5 5 3 4 7 16 8 8 4 10 5 15 20 27 40 23 20 32 30 25 11 8 5 9 20 29 29 29
Wind_Direction_500mb
4 4 4 1 358 351 345 340 334 334 333 332 331 341 310 169 80 35 324 299 274 265 219 171 160 156 141 189 190 285 247 245 243 241 61 78 234 119 292 256 194 156 49 147 178
352 354 356 356 356 353 347 336 327 323 326 318 310 335 302 202 118 4 326 310 275 222 155 159 166 158 172 189 190 226 250 262 32 14 14 3 306 348 273 207 218 198 214 150 171
344 348 348 350 350 350 347 338 325 318 321 308 295 309 164 176 162 288 323 322 290 191 172 176 165 170 193 186 187 184 270 46 68 25 351 311 267 259 275 252 245 255 189 177 185
335 343 345 347 345 343 342 338 326 315 316 297 280 270 172 159 278 307 323 328 293 177 166 167 173 188 209 203 193 219 271 358 33 358 323 282 305 261 247 289 47 90 161 188 197
321 328 340 343 343 339 343 336 327 315 313 293 266 242 187 158 354 330 339 351 89 157 168 195 190 195 211 200 191 245 148 90 68 341 309 301 267 278 268 255 246 243 228 206 210
307 320 332 338 335 338 341 334 328 321 303 294 251 199 204 234 305 341 4 12 149 155 181 171 227 204 131 144 250 103 168 147 33 343 310 307 278 304 129 130 234 239 245 236 230
304 314 325 331 332 340 341 337 335 317 302 164 144 133 118 186 5 13 58 47 136 160 170 188 156 231 142 142 147 152 175 178 47 338 328 327 249 238 270 296 278 294 251 233 238
305 302 316 322 323 340 341 337 334 350 9 123 172 155 121 166 44 35 120 86 101 136 148 147 132 115 73 129 157 215 233 219 87 3 119 316 73 97 94 42 37 344 287 248 260
310 311 304 312 320 333 339 345 344 348 3 52 111 128 84 81 13 29 153 139 109 118 124 124 94 106 139 208 189 184 254 228 142 40 322 276 321 107 150 300 302 292 273 280 287
306 308 309 319 289 332 335 333 300 348 298 4 61 121 68 318 352 20 128 145 114 119 86 58 77 143 153 226 239 188 209 200 296 27 329 277 276 314 317 309 305 306 316 315 309
292 299 310 311 242 320 320 323 300 326 59 80 15 75 90 87 52 22 141 116 118 78 185 31 115 133 54 22 344 343 340 313 83 27 320 314 304 324 354 43 46 39 41 22 10
290 306 308 327 256 316 322 243 251 157 88 65 71 70 65 42 13 16 126 236 76 94 144 106 110 79 4 6 42 38 50 335 130 30 323 328 309 52 33 38 44 39 34 26 20
299 291 305 239 289 299 324 288 146 140 38 49 46 46 23 48 40 356 64 84 85 51 43 274 75 5 283 39 248 44 10 29 336 323 192 315 178 115 88 73 60 50 38 33 27
21 301 239 256 291 334 324 271 191 178 90 14 37 10 353 81 62 25 42 90 75 143 68 66 41 80 123 76 341 214 24 21 5 349 321 359 206 142 127 89 63 43 32 30 28
253 340 309 248 263 313 301 216 161 140 307 33 24 352 30 29 358 10 33 42 73 94 127 79 38 49 41 28 342 59 33 47 56 87 298 12 240 129 179 99 38 34 37 38 35
292 300 162 209 248 321 89 126 122 42 257 8 326 341 17 31 30 339 40 69 116 83 60 87 60 27 41 59 44 113 340 48 172 153 223 101 336 149 89 346 54 61 57 46 45
128 145 165 172 196 109 129 118 44 132 325 346 14 8 94 18 34 13 14 83 281 114 149 168 72 90 11 217 130 18 290 236 209 217 304 188 260 22 79 87 95 77 54 49 46
147 157 163 184 141 150 138 63 97 173 223 158 274 105 56 2 52 353 281 222 119 270 148 184 224 20 3 41 11 306 326 305 280 247 51 236 232 160 126 113 106 76 59 49 42
135 133 130 160 163 156 144 71 211 167 81 175 157 102 325 125 344 337 302 284 358 334 226 164 201 120 44 13 304 111 270 39 94 119 260 186 239 177 160 124 115 68 45 29 28
127 112 70 120 125 140 75 216 149 354 329 261 219 208 230 191 210 162 202 132 184 334 351 136 175 89 128 263 63 250 55 176 194 258 251 191 259 231 173 171 144 61 28 23 30
113 21 5 114 128 105 132 143 335 240 5 334 313 210 226 191 208 191 182 161 188 148 87 151 254 111 234 201 165 144 191 219 309 257 267 277 233 325 179 156 140 99 38 27 25
107 27 10 144 15 27 65 24 341 141 274 281 301 337 251 194 209 244 239 220 165 176 197 143 271 214 195 126 29 258 249 215 236 178 245 314 272 7 116 122 126 109 46 26 16
139 100 32 95 90 58 38 9 358 340 334 328 292 306 38 231 267 232 246 54 182 209 232 178 227 239 195 172 189 229 201 198 102 292 224 256 244 86 124 133 141 126 6 353 351
21 35 75 90 106 139 158 162 190 221 245 122 326 122 254 319 306 316 261 193 202 253 251 204 234 253 267 72 71 206 209 216 209 231 240 231 259 179 185 179 187 233 293 330 335
58 68 75 16 28 65 186 156 148 206 236 209 222 227 191 258 257 241 234 215 217 202 188 270 259 279 273 261 229 253 228 201 210 224 234 272 232 125 185 195 228 276 324 325 327
20 102 80 90 90 133 42 211 218 274 182 231 233 306 199 212 234 306 215 212 222 187 208 200 276 348 273 308 293 271 251 238 237 237 249 258 270 268 256 209 275 319 328 317 315
76 101 84 164 119 260 236 202 215 176 205 213 233 208 230 244 238 217 220 257 281 201 196 181 187 189 270 2 318 272 232 224 224 213 227 244 265 152 167 223 277 294 294 280 300
Wind_Speed_850mb
22 24 26 30 30 27 26 23 21 19 20 15 11 9 4 1 5 2 3 7 6 4 4 7 11 14 9 6 3 3 9 13 9 10 6 4 6 2 3 6 6 3 2 8 26
22 24 26 28 29 29 29 26 24 20 20 15 9 6 3 5 3 4 8 8 5 3 7 9 12 14 8 9 6 13 12 6 10 9 6 5 8 5 7 14 13 8 4 13 22
21 24 27 29 29 30 32 29 24 22 18 13 9 4 1 4 2 5 11 8 4 5 10 13 16 11 9 9 8 8 9 6 5 7 6 6 8 4 10 13 12 8 17 19 22
19 23 28 29 29 31 34 31 25 20 15 10 7 3 2 5 3 9 9 7 1 5 11 14 12 9 9 11 8 10 1 5 3 5 6 6 10 10 15 9 5 2 6 19 24
21 21 25 30 30 31 34 33 24 17 11 7 5 4 4 2 2 8 6 6 1 5 11 7 14 10 10 5 7 10 4 3 1 3 7 12 15 17 19 13 12 9 7 14 19
22 23 26 30 30 29 31 30 20 12 6 5 4 4 4 8 6 7 4 5 3 7 7 7 5 4 7 2 7 4 5 3 2 3 5 11 12 6 4 2 5 13 16 14 17
26 26 30 29 28 28 30 27 17 11 7 1 2 5 3 5 2 5 3 5 4 9 4 10 10 1 8 8 5 10 8 6 5 7 3 12 13 13 9 5 9 5 5 11 14
31 31 32 31 27 27 28 24 15 8 4 2 4 4 3 6 7 6 4 6 8 8 10 12 13 9 3 12 8 7 5 7 8 12 2 9 3 10 5 2 3 2 1 3 10
27 21 28 28 23 22 22 19 10 7 4 1 1 6 4 3 5 5 4 6 9 9 13 13 6 6 6 6 6 3 4 8 8 8 8 4 10 11 4 11 23 20 18 18 19
22 26 23 25 19 24 21 14 10 12 3 3 7 3 3 4 4 3 4 9 6 11 7 3 2 3 3 6 4 7 7 5 4 11 10 16 22 18 22 23 24 20 14 15 16
26 18 26 20 26 23 15 14 9 2 8 7 2 5 5 8 12 7 4 8 9 4 2 5 4 5 6 6 6 5 2 4 6 8 11 7 22 23 18 12 14 14 14 18 19
23 24 22 9 21 20 11 6 7 10 12 13 12 13 8 2 3 14 6 1 5 5 2 4 6 4 3 2 3 4 2 1 2 4 10 13 26 10 16 16 17 16 20 24 24
13 23 6 12 19 12 6 4 11 12 1 6 9 8 6 7 7 15 6 4 10 7 4 0 11 2 2 7 1 7 4 5 5 17 1 22 6 12 20 27 25 25 21 24 28
7 12 9 18 9 4 3 1 7 6 5 4 5 8 8 3 4 16 7 3 6 5 10 11 6 2 2 5 9 4 7 5 7 9 4 14 2 15 15 20 27 27 29 27 28
16 13 13 10 3 3 4 1 8 5 3 5 4 4 10 5 4 10 15 8 7 6 3 4 6 7 6 6 8 6 3 5 4 0 3 5 5 14 14 10 17 27 28 28 28
8 12 11 4 1 2 1 8 10 8 3 2 5 6 2 9 6 9 5 10 9 7 18 7 5 7 6 5 9 8 2 3 2 2 4 4 5 9 1 10 10 22 28 30 29
6 17 21 2 2 4 10 8 7 3 1 4 4 4 5 8 5 12 6 3 2 6 3 5 4 4 5 3 5 3 2 2 5 5 2 1 7 4 9 14 19 20 24 27 28
17 17 15 2 4 7 11 7 3 2 4 2 0 3 2 8 6 8 2 3 2 5 6 8 6 3 12 6 1 1 2 6 7 4 4 2 10 4 20 18 19 20 21 23 26
20 11 6 3 5 10 2 5 7 3 3 7 6 2 1 3 2 3 3 3 4 5 5 7 4 6 9 3 4 5 3 4 6 2 5 5 6 12 18 9 13 16 20 23 23
13 8 6 4 6 8 6 4 3 2 2 3 7 5 5 5 5 3 5 3 3 2 4 4 3 1 1 3 7 2 4 3 4 6 9 7 8 11 22 19 4 10 16 21 22
8 2 7 3 8 1 4 3 1 2 3 4 4 3 6 7 6 5 4 6 4 6 0 5 1 5 3 10 7 6 5 4 4 5 7 7 7 7 26 25 17 8 10 20 22
4 3 6 4 5 7 4 4 3 1 0 2 4 0 5 4 7 6 8 5 7 9 5 3 1 7 5 7 0 4 4 10 8 7 4 6 12 12 25 30 22 11 10 13 15
6 5 7 4 4 3 4 4 4 5 5 6 3 4 1 4 7 6 5 3 6 7 3 6 4 4 5 4 6 9 14 8 2 3 16 8 6 5 18 17 11 5 6 11 15
2 2 3 5 9 10 8 5 3 2 3 1 2 1 1 3 1 7 5 2 5 4 4 4 6 9 8 5 4 8 14 18 14 9 11 28 12 11 17 11 11 9 9 13 13
3 3 3 4 6 5 2 8 6 3 5 5 3 13 5 4 3 7 6 2 5 5 1 4 8 7 15 11 7 14 11 20 28 30 17 29 19 4 15 12 13 12 16 19 22
4 4 7 5 3 5 3 2 4 0 6 4 7 4 13 7 5 4 6 9 9 11 8 2 4 5 8 10 13 25 30 32 37 36 36 46 56 14 8 5 5 16 26 28 31
5 6 4 1 2 2 1 3 6 10 12 6 7 6 12 15 10 5 5 3 4 7 16 8 8 4 10 5 15 20 27 40 23 20 32 30 25 11 8 5 9 20 29 29 29
Wind_Direction_850mb
4 4 4 1 358 351 345 340 334 334 333 332 331 341 310 169 80 35 324 299 274 265 219 171 160 156 141 189 190 285 247 245 243 241 61 78 234 119 292 256 194 156 49 147 178
352 354 356 356 356 353 347 336 327 323 326 318 310 335 302 202 118 4 326 310 275 222 155 159 166 158 172 189 190 226 250 262 32 14 14 3 306 348 273 207 218 198 214 150 171
344 348 348 350 350 350 347 338 325 318 321 308 295 309 164 176 162 288 323 322 290 191 172 176 165 170 193 186 187 184 270 46 68 25 351 311 267 259 275 252 245 255 189 177 185
335 343 345 347 345 343 342 338 326 315 316 297 280 270 172 159 278 307 323 328 293 177 166 167 173 188 209 203 193 219 271 358 33 358 323 282 305 261 247 289 47 90 161 188 197
321 328 340 343 343 339 343 336 327 315 313 293 266 242 187 158 354 330 339 351 89 157 168 195 190 195 211 200 191 245 148 90 68 341 309 301 267 278 268 255 246 243 228 206 210
307 320 332 338 335 338 341 334 328 321 303 294 251 199 204 234 305 341 4 12 149 155 181 171 227 204 131 144 250 103 168 147 33 343 310 307 278 304 129 130 234 239 245 236 230
304 314 325 331 332 340 341 337 335 317 302 164 144 133 118 186 5 13 58 47 136 160 170 188 156 231 142 142 147 152 175 178 47 338 328 327 249 238 270 296 278 294 251 233 238
305 302 316 322 323 340 341 337 334 350 9 123 172 155 121 166 44 35 120 86 101 136 148 147 132 115 73 129 157 215 233 219 87 3 119 316 73 97 94 42 37 344 287 248 260
310 311 304 312 320 333 339 345 344 348 3 52 111 128 84 81 13 29 153 139 109 118 124 124 94 106 139 208 189 184 254 228 142 40 322 276 321 107 150 300 302 292 273 280 287
306 308 309 319 289 332 335 333 300 348 298 4 61 121 68 318 352 20 128 145 114 119 86 58 77 143 153 226 239 188 209 200 296 27 329 277 276 314 317 309 305 306 316 315 309
292 299 310 311 242 320 320 323 300 326 59 80 15 75 90 87 52 22 141 116 118 78 185 31 115 133 54 22 344 343 340 313 83 27 320 314 304 324 354 43 46 39 41 22 10
290 306 308 327 256 316 322 243 251 157 88 65 71 70 65 42 13 16 126 236 76 94 144 106 110 79 4 6 42 38 50 335 130 30 323 328 309 52 33 38 44 39 34 26 20
299 291 305 239 289 299 324 288 146 140 38 49 46 46 23 48 40 356 64 84 85 51 43 274 75 5 283 39 248 44 10 29 336 323 192 315 178 115 88 73 60 50 38 33 27
21 301 239 256 291 334 324 271 191 178 90 14 37 10 353 81 62 25 42 90 75 143 68 66 41 80 123 76 341 214 24 21 5 349 321 359 206 142 127 89 63 43 32 30 28
253 340 309 248 263 313 301 216 161 140 307 33 24 352 30 29 358 10 33 42 73 94 127 79 38 49 41 28 342 59 33 47 56 87 298 12 240 129 179 99 38 34 37 38 35
292 300 162 209 248 321 89 126 122 42 257 8 326 341 17 31 30 339 40 69 116 83 60 87 60 27 41 59 44 113 340 48 172 153 223 101 336 149 89 346 54 61 57 46 45
128 145 165 172 196 109 129 118 44 132 325 346 14 8 94 18 34 13 14 83 281 114 149 168 72 90 11 217 130 18 290 236 209 217 304 188 260 22 79 87 95 77 54 49 46
147 157 163 184 141 150 138 63 97 173 223 158 274 105 56 2 52 353 281 222 119 270 148 184 224 20 3 41 11 306 326 305 280 247 51 236 232 160 126 113 106 76 59 49 42
135 133 130 160 163 156 144 71 211 167 81 175 157 102 325 125 344 337 302 284 358 334 226 164 201 120 44 13 304 111 270 39 94 119 260 186 239 177 160 124 115 68 45 29 28
127 112 70 120 125 140 75 216 149 354 329 261 219 208 230 191 210 162 202 132 184 334 351 136 175 89 128 263 63 250 55 176 194 258 251 191 259 231 173 171 144 61 28 23 30
113 21 5 114 128 105 132 143 335 240 5 334 313 210 226 191 208 191 182 161 188 148 87 151 254 111 234 201 165 144 191 219 309 257 267 277 233 325 179 156 140 99 38 27 25
107 27 10 144 15 27 65 24 341 141 274 281 301 337 251 194 209 244 239 220 165 176 197 143 271 214 195 126 29 258 249 215 236 178 245 314 272 7 116 122 126 109 46 26 16
139 100 32 95 90 58 38 9 358 340 334 328 292 306 38 231 267 232 246 54 182 209 232 178 227 239 195 172 189 229 201 198 102 292 224 256 244 86 124 133 141 126 6 353 351
21 35 75 90 106 139 158 162 190 221 245 122 326 122 254 319 306 316 261 193 202 253 251 204 234 253 267 72 71 206 209 216 209 231 240 231 259 179 185 179 187 233 293 330 335
58 68 75 16 28 65 186 156 148 206 236 209 222 227 191 258 257 241 234 215 217 202 188 270 259 279 273 261 229 253 228 201 210 224 234 272 232 125 185 195 228 276 324 325 327
20 102 80 90 90 133 42 211 218 274 182 231 233 306 199 212 234 306 215 212 222 187 208 200 276 348 273 308 293 271 251 238 237 237 249 258 270 268 256 209 275 319 328 317 315
76 101 84 164 119 260 236 202 215 176 205 213 233 208 230 244 238 217 220 257 281 201 196 181 187 189 270 2 318 272 232 224 224 213 227 244 265 152 167 223 277 294 294 280 300